Portada
METAR-TAF:

Aeropuertos :

Chichén Itzá, México

Aeropuerto Internacional de Kaua

latitud: 20-38-30N, longitud: 088-26-58W, altitud: 31 m

Observación

El informe se hizo hace 10 horas y 6 minutos, a las 20:42 UTC
Viento 5 kt del sur-sureste
Temperatura 36°C
Humedad 37%
Presión 1009 hPa
Visibilidad: 12.9 km
Cielo nuboso a una altura de 1500 ft

METAR: MMCT 022042Z 15005KT 8SM BKN015 36/19 A2979 RMK 8/400 MSGTX MMMD

Hora: 01:48 (06:48 UTC)


TAF: falta

METAR-TAF

Observaciones y pronósticos meteorológicos de más de 4000 aeropuertos (mensajes METAR y TAF).

Los puntos amarillos y rojos representan las estaciones disponibles.

Ponga el ratón en el punto deseado para ver el nombre de la estación.

Haga clic para ver las observaciones y los pronósticos meteorológicos.

Para cambiar el mapa : haga clic en los botones verdes con una cruz de color negro para hacer un zoom, en el botón verde con un guión para alejar o en las flechas verdes para mapas adyacentes.


METAR-TAF: